When you browse on this site, cookies collect data to enhance your experience and personalize the content and advertising you see.
Visit our Privacy Policy to learn more. By continuing to use the site, you agree to this use of cookies and data.

Meteo pe oră la Ahwaz

Astăzi, 24 Septembrie, Joi

Timp Temperatura Precipitaţii Vânt Presiune Umiditate
00:00 +35°C° 0 mm 4 m/s 752 mmHg 13%
01:00 +34°C° 0 mm 4 m/s 752 mmHg 14%
02:00 +33°C° 0 mm 4 m/s 752 mmHg 14%
03:00 +32°C° 0 mm 4 m/s 751 mmHg 15%
04:00 +31°C° 0 mm 3 m/s 752 mmHg 16%
05:00 +31°C° 0 mm 3 m/s 752 mmHg 16%
06:00 +30°C° 0 mm 3 m/s 753 mmHg 17%
07:00 +34°C° 0 mm 3 m/s 753 mmHg 14%
08:00 +38°C° 0 mm 4 m/s 753 mmHg 11%
09:00 +42°C° 0 mm 4 m/s 753 mmHg 9%
10:00 +45°C° 0 mm 5 m/s 753 mmHg 7%
11:00 +47°C° 0 mm 5 m/s 753 mmHg 6%
12:00 +49°C° 0 mm 6 m/s 753 mmHg 4%
13:00 +50°C° 0 mm 7 m/s 752 mmHg 4%
14:00 +50°C° 0 mm 7 m/s 752 mmHg 5%
15:00 +50°C° 0 mm 8 m/s 752 mmHg 5%
16:00 +48°C° 0 mm 8 m/s 752 mmHg 6%
17:00 +44°C° 0 mm 7 m/s 752 mmHg 8%
18:00 +41°C° 0 mm 7 m/s 752 mmHg 9%
19:00 +40°C° 0 mm 7 m/s 752 mmHg 11%
20:00 +39°C° 0 mm 6 m/s 753 mmHg 12%
21:00 +36°C° 0 mm 6 m/s 753 mmHg 14%
22:00 +35°C° 0 mm 6 m/s 753 mmHg 15%
23:00 +34°C° 0 mm 5 m/s 753 mmHg 16%

Mâine, 25 Septembrie, Vineri

Timp Temperatura Precipitaţii Vânt Presiune Umiditate
00:00 +33°C° 0 mm 5 m/s 753 mmHg 17%
01:00 +32°C° 0 mm 5 m/s 753 mmHg 18%
02:00 +32°C° 0 mm 5 m/s 752 mmHg 19%
03:00 +30°C° 0 mm 4 m/s 752 mmHg 20%
04:00 +29°C° 0 mm 4 m/s 752 mmHg 22%
05:00 +28°C° 0 mm 3 m/s 753 mmHg 23%
06:00 +27°C° 0 mm 3 m/s 753 mmHg 25%
07:00 +30°C° 0 mm 3 m/s 753 mmHg 21%
08:00 +34°C° 0 mm 2 m/s 753 mmHg 17%
09:00 +37°C° 0 mm 2 m/s 753 mmHg 13%
10:00 +39°C° 0 mm 2 m/s 753 mmHg 11%
11:00 +43°C° 0 mm 3 m/s 753 mmHg 9%
12:00 +45°C° 0 mm 3 m/s 752 mmHg 6%
13:00 +46°C° 0 mm 3 m/s 752 mmHg 6%
14:00 +48°C° 0 mm 4 m/s 751 mmHg 5%
15:00 +48°C° 0 mm 5 m/s 751 mmHg 4%
16:00 +46°C° 0 mm 5 m/s 751 mmHg 5%
17:00 +42°C° 0 mm 4 m/s 751 mmHg 6%
18:00 +40°C° 0 mm 4 m/s 751 mmHg 8%
19:00 +39°C° 0 mm 5 m/s 751 mmHg 10%
20:00 +39°C° 0 mm 5 m/s 752 mmHg 12%
21:00 +38°C° 0 mm 6 m/s 752 mmHg 14%
22:00 +36°C° 0 mm 6 m/s 752 mmHg 14%
23:00 +36°C° 0 mm 5 m/s 752 mmHg 14%

Poimâine, 26 Septembrie, Sâmbătă

Timp Temperatura Precipitaţii Vânt Presiune Umiditate
00:00 +35°C° 0 mm 5 m/s 751 mmHg 14%
01:00 +34°C° 0 mm 4 m/s 751 mmHg 15%
02:00 +33°C° 0 mm 4 m/s 751 mmHg 16%
03:00 +30°C° 0 mm 3 m/s 751 mmHg 17%
04:00 +29°C° 0 mm 3 m/s 751 mmHg 18%
05:00 +28°C° 0 mm 2 m/s 751 mmHg 18%
06:00 +27°C° 0 mm 1 m/s 751 mmHg 19%
07:00 +31°C° 0 mm 2 m/s 752 mmHg 16%
08:00 +36°C° 0 mm 3 m/s 752 mmHg 12%
09:00 +39°C° 0 mm 3 m/s 752 mmHg 9%
10:00 +43°C° 0 mm 4 m/s 752 mmHg 8%
11:00 +45°C° 0 mm 4 m/s 752 mmHg 6%
12:00 +48°C° 0 mm 4 m/s 752 mmHg 5%
13:00 +48°C° 0 mm 5 m/s 751 mmHg 5%
14:00 +49°C° 0 mm 5 m/s 751 mmHg 5%
15:00 +49°C° 0 mm 6 m/s 750 mmHg 5%
16:00 +47°C° 0 mm 5 m/s 750 mmHg 7%
17:00 +43°C° 0 mm 4 m/s 750 mmHg 8%
18:00 +40°C° 0 mm 3 m/s 750 mmHg 9%
19:00 +38°C° 0 mm 3 m/s 750 mmHg 10%
20:00 +37°C° 0 mm 2 m/s 751 mmHg 12%
21:00 +35°C° 0 mm 2 m/s 751 mmHg 13%
22:00 +35°C° 0 mm 2 m/s 751 mmHg 13%
23:00 +34°C° 0 mm 2 m/s 751 mmHg 14%

27 Septembrie, Duminică

Timp Temperatura Precipitaţii Vânt Presiune Umiditate
00:00 +34°C° 0 mm 2 m/s 751 mmHg 14%
01:00 +32°C° 0 mm 2 m/s 751 mmHg 16%
02:00 +31°C° 0 mm 3 m/s 751 mmHg 18%
03:00 +31°C° 0 mm 3 m/s 751 mmHg 20%
04:00 +30°C° 0 mm 3 m/s 751 mmHg 26%
05:00 +30°C° 0 mm 3 m/s 752 mmHg 31%
06:00 +29°C° 0 mm 3 m/s 752 mmHg 36%
07:00 +34°C° 0 mm 3 m/s 752 mmHg 30%
08:00 +37°C° 0 mm 3 m/s 753 mmHg 24%
09:00 +42°C° 0 mm 3 m/s 753 mmHg 18%
10:00 +43°C° 0 mm 3 m/s 752 mmHg 15%
11:00 +45°C° 0 mm 3 m/s 752 mmHg 12%
12:00 +47°C° 0 mm 3 m/s 752 mmHg 9%
13:00 +48°C° 0 mm 3 m/s 751 mmHg 8%
14:00 +49°C° 0 mm 4 m/s 751 mmHg 7%
15:00 +50°C° 0 mm 5 m/s 750 mmHg 6%
16:00 +47°C° 0 mm 4 m/s 750 mmHg 7%
17:00 +44°C° 0 mm 4 m/s 750 mmHg 7%
18:00 +41°C° 0 mm 4 m/s 751 mmHg 8%
19:00 +40°C° 0 mm 4 m/s 751 mmHg 9%
20:00 +37°C° 0 mm 4 m/s 751 mmHg 11%
21:00 +35°C° 0 mm 4 m/s 752 mmHg 12%
22:00 +35°C° 0 mm 5 m/s 752 mmHg 14%
23:00 +35°C° 0 mm 6 m/s 752 mmHg 16%

28 Septembrie, Luni

Timp Temperatura Precipitaţii Vânt Presiune Umiditate
00:00 +35°C° 0 mm 7 m/s 752 mmHg 18%
01:00 +33°C° 0 mm 7 m/s 751 mmHg 20%
02:00 +32°C° 0 mm 6 m/s 751 mmHg 22%
03:00 +30°C° 0 mm 5 m/s 751 mmHg 24%
04:00 +29°C° 0 mm 4 m/s 751 mmHg 25%
05:00 +28°C° 0 mm 4 m/s 752 mmHg 26%
06:00 +27°C° 0 mm 3 m/s 752 mmHg 28%
07:00 +30°C° 0 mm 2 m/s 752 mmHg 23%
08:00 +34°C° 0 mm 2 m/s 752 mmHg 19%
09:00 +37°C° 0 mm 2 m/s 753 mmHg 15%
10:00 +39°C° 0 mm 1 m/s 752 mmHg 13%
11:00 +42°C° 0 mm 1 m/s 752 mmHg 11%
12:00 +44°C° 0 mm 1 m/s 752 mmHg 9%
13:00 +45°C° 0 mm 1 m/s 751 mmHg 8%
14:00 +46°C° 0 mm 1 m/s 751 mmHg 8%
15:00 +47°C° 0 mm 2 m/s 750 mmHg 7%
16:00 +43°C° 0 mm 1 m/s 750 mmHg 9%
17:00 +40°C° 0 mm 1 m/s 750 mmHg 11%
18:00 +35°C° 0 mm 1 m/s 750 mmHg 13%
19:00 +34°C° 0 mm 1 m/s 750 mmHg 14%
20:00 +34°C° 0 mm 1 m/s 751 mmHg 15%
21:00 +34°C° 0 mm 2 m/s 751 mmHg 16%
22:00 +32°C° 0 mm 2 m/s 751 mmHg 17%
23:00 +32°C° 0 mm 2 m/s 751 mmHg 19%

29 Septembrie, Marţi

Timp Temperatura Precipitaţii Vânt Presiune Umiditate
00:00 +31°C° 0 mm 2 m/s 751 mmHg 20%
01:00 +31°C° 0 mm 3 m/s 751 mmHg 22%
02:00 +30°C° 0 mm 3 m/s 751 mmHg 24%
03:00 +29°C° 0 mm 3 m/s 751 mmHg 26%
04:00 +29°C° 0 mm 3 m/s 751 mmHg 34%
05:00 +28°C° 0 mm 3 m/s 751 mmHg 41%
06:00 +28°C° 0 mm 3 m/s 752 mmHg 48%
07:00 +32°C° 0 mm 4 m/s 752 mmHg 42%
08:00 +35°C° 0 mm 4 m/s 752 mmHg 35%
09:00 +40°C° 0 mm 4 m/s 752 mmHg 28%
10:00 +42°C° 0 mm 4 m/s 752 mmHg 23%
11:00 +44°C° 0 mm 4 m/s 752 mmHg 17%
12:00 +47°C° 0 mm 4 m/s 751 mmHg 12%
13:00 +47°C° 0 mm 4 m/s 751 mmHg 11%
14:00 +48°C° 0 mm 4 m/s 750 mmHg 10%
15:00 +48°C° 0 mm 4 m/s 750 mmHg 9%
16:00 +45°C° 0 mm 4 m/s 750 mmHg 12%
17:00 +42°C° 0 mm 5 m/s 750 mmHg 16%
18:00 +39°C° 0 mm 6 m/s 750 mmHg 20%
19:00 +36°C° 0 mm 5 m/s 750 mmHg 28%
20:00 +34°C° 0 mm 5 m/s 751 mmHg 36%
21:00 +32°C° 0 mm 5 m/s 751 mmHg 44%
22:00 +30°C° 0 mm 4 m/s 751 mmHg 51%
23:00 +30°C° 0 mm 4 m/s 751 mmHg 57%
Arată mai mult